WGS F1 (USA 195)

Last updated on Nov. 18, 2019, 4:21 a.m. UTC

1 32258U 07046A   19321.19530034  .00000049  00000-0  00000+0 0  9990
2 32258   0.0469 108.9241 0000470 113.4312 269.9616  1.00269973 44219
UTC
Height (km)
Latitude
Longitude
Inclination
Orbital Period
UTC large
Height (km)
Speed (km/s)
/
Latitude / Longitude
Inclination (degrees)
Orbital Period (minutes)
Azimuth
Elevation
Range (km)
Doppler Factor
iOS Compass Heading
iOS Angle

Next 30 passes for location: Hong Kong

Rise time Rise Azimuth (degrees) Set time Set Azimuth (degrees) Duration Max altitude (degrees)

No matching passes for this satellites